カタログに戻る

STARLINK-36080

運用中通信VLEO
NORAD 66801·PAYLOAD·🇺🇸 United States

打ち上げ Dec 1, 2025 から Cape Canaveral Space Force Station

Loading…

次のパス (今後24時間)

TLE

最新Source: CelesTrak SupGP

元期: Sep 15, 2026, 03:36 UTC

1 66801C 25278L   26258.15048611  .00043162  00000+0  15631-2 0  2585
2 66801  43.0001 124.7899 0001497 270.0188 321.8085 15.27562045    13

AllMySatでSTARLINK-36080をリアルタイム追跡

Download on the App Store